Wind_Speed
23 23 23 25 26 28 30 29 30 32 34 35 34 33 32 31 31 30 29 29 29 28 27 27 28 27 26 26 26 25 25 25 26 27 26 26 26 26 26 25 25 24 24 23 23 23 24 23 22 20 20 21 21 22 22 22 22 22 22 22 22 22 22 23 23 23 24 24 25 25 25 25 25 25
21 21 22 22 21 27 31 29 29 30 31 33 33 33 32 31 31 30 30 32 31 28 27 28 29 29 27 27 26 25 26 26 27 27 27 26 26 26 26 26 25 25 24 24 24 24 24 23 22 22 22 22 22 22 22 22 22 22 22 22 23 23 23 23 23 24 25 26 26 27 27 27 27 27
19 19 20 20 19 22 28 29 28 29 30 31 32 32 32 32 32 31 32 33 31 28 27 29 31 29 27 27 26 26 26 27 27 27 27 26 26 26 26 26 26 26 25 24 24 24 23 23 22 22 23 23 23 23 23 22 22 22 23 23 23 23 23 24 24 25 26 27 28 28 28 28 28 28
18 18 18 19 18 19 23 27 29 30 31 31 31 31 32 33 32 31 31 31 30 28 28 31 32 29 27 26 26 27 27 28 27 27 27 26 26 26 27 27 27 26 25 25 24 24 24 24 23 23 24 24 23 23 23 23 23 24 24 24 24 24 24 25 25 26 27 28 28 29 29 29 30 30
17 18 17 17 18 19 20 23 27 30 31 30 30 31 32 32 32 31 31 30 29 29 30 32 32 29 26 27 27 28 29 28 28 27 27 27 27 27 28 27 27 26 26 25 25 24 24 24 24 25 25 25 24 24 24 25 25 25 25 25 25 25 25 26 26 27 28 29 29 30 30 31 31 31
16 17 17 17 18 20 21 22 24 27 29 29 30 30 31 32 32 31 31 31 30 30 30 31 32 29 27 28 29 30 30 29 28 28 28 28 27 28 28 28 27 27 26 26 26 25 25 25 25 26 26 26 25 25 25 26 26 26 26 26 26 26 27 27 28 28 29 30 30 31 31 32 32 33
16 16 17 18 19 20 21 22 23 25 27 28 29 30 31 32 31 31 32 31 30 30 30 31 31 30 29 30 30 31 31 30 29 29 28 28 28 29 29 28 27 27 27 27 26 26 26 25 26 27 27 27 26 26 26 27 27 28 28 28 28 28 28 28 29 29 30 30 31 31 32 32 33 34
17 17 18 18 19 21 22 23 23 24 26 27 28 29 31 32 32 32 32 31 30 30 31 32 32 30 29 29 31 32 31 29 29 29 29 29 30 30 29 29 28 28 28 27 27 27 27 26 27 28 28 28 27 27 28 28 29 29 29 29 30 30 30 30 30 30 30 31 31 31 32 32 33 34
17 18 18 18 19 21 23 23 24 24 25 26 27 28 30 32 32 32 32 31 30 31 32 32 32 30 29 30 33 33 31 30 30 30 29 29 31 31 30 30 29 29 29 29 29 28 27 27 28 28 28 28 29 29 29 29 30 30 31 31 31 31 31 31 31 31 31 31 31 32 32 33 33 33
17 18 19 19 19 20 22 23 23 22 22 24 26 27 28 29 30 30 31 31 31 31 31 32 32 32 30 31 33 33 31 31 31 30 30 30 31 32 31 31 30 30 30 30 29 29 28 28 28 28 29 29 30 30 31 31 31 32 32 32 32 32 32 32 32 32 32 32 33 33 33 33 33 33
17 18 19 19 19 20 22 23 23 23 23 24 26 27 27 28 30 31 31 31 30 30 31 32 33 33 32 32 33 32 31 30 30 31 32 32 32 32 32 32 31 31 31 30 30 29 29 29 29 29 30 31 31 32 32 32 32 33 33 33 33 33 33 33 33 33 33 34 34 34 34 34 34 33
18 18 18 18 19 21 23 23 24 25 25 25 26 26 28 29 30 31 30 30 30 30 31 32 34 34 34 34 33 33 32 30 30 33 34 33 34 34 33 32 32 32 32 31 30 31 31 31 31 31 32 32 32 33 33 33 33 33 33 33 34 34 34 34 34 34 34 34 35 35 35 35 34 33
19 18 18 18 19 20 21 22 23 24 25 26 27 27 29 30 30 31 30 30 31 31 32 34 35 34 34 33 34 34 32 32 34 35 35 34 35 34 33 32 32 32 32 32 32 33 33 33 33 33 33 33 33 33 33 33 33 34 34 34 34 34 34 35 35 35 35 35 35 35 35 35 34 33
19 19 18 18 18 19 19 21 22 23 24 26 27 28 29 30 31 31 31 31 31 32 33 34 34 34 33 32 32 31 32 34 36 35 34 34 34 33 33 33 34 34 34 34 34 35 34 34 34 34 33 33 33 34 34 34 34 34 34 34 34 34 35 35 35 36 36 36 36 35 35 35 35 35
21 20 20 19 19 19 20 21 22 23 24 25 27 27 28 29 30 30 31 31 31 31 32 33 33 33 32 31 31 31 33 36 37 36 35 34 34 34 34 35 35 36 35 35 35 35 35 34 34 34 33 33 33 34 34 34 34 34 34 34 35 35 36 36 36 37 37 36 36 36 36 36 36 37
22 22 21 21 21 21 21 21 21 21 22 24 25 26 27 29 30 30 30 30 30 30 30 31 32 31 31 32 31 31 34 37 38 36 35 35 36 36 36 36 36 37 36 36 35 35 34 34 34 34 34 34 34 34 34 34 35 35 35 36 37 37 38 37 37 37 37 37 37 37 37 37 37 38
20 20 20 20 20 20 20 21 21 21 22 23 23 25 26 28 29 30 30 29 29 28 28 29 31 31 30 31 30 29 32 37 38 36 35 35 36 36 35 36 36 36 35 34 34 34 34 34 35 35 34 34 35 35 35 35 36 36 37 39 39 40 39 38 38 38 38 38 39 39 39 39 39 40
17 19 20 19 19 19 19 19 20 21 22 23 24 24 25 26 28 29 29 28 27 26 27 28 29 29 30 30 29 28 32 37 38 37 36 34 34 36 37 37 36 34 33 33 33 33 34 35 36 36 35 35 35 35 36 36 37 38 40 41 41 40 39 38 37 37 38 39 40 41 42 42 42 43
16 17 19 19 19 19 18 19 20 21 21 22 22 22 23 25 25 26 26 26 25 25 26 27 27 29 29 29 28 29 33 37 39 38 36 34 34 35 35 34 32 31 32 32 33 34 35 36 36 35 36 36 36 37 38 38 39 40 41 41 41 41 40 39 38 39 40 41 42 43 44 45 45 46
17 17 17 17 17 18 18 18 19 20 19 19 20 21 23 24 24 23 24 24 25 26 27 27 28 29 29 28 29 31 32 34 36 36 35 33 32 32 32 31 30 30 31 32 33 35 35 35 36 36 37 37 37 38 39 40 40 40 41 42 42 41 41 40 41 42 43 43 44 45 46 47 48 48
17 18 18 17 16 17 17 18 18 19 19 19 19 21 22 22 21 22 24 25 26 27 28 29 30 30 29 28 29 31 31 32 35 36 34 32 31 31 31 30 30 30 32 33 34 35 36 36 37 37 37 38 39 39 40 40 41 41 42 43 43 42 42 42 43 44 43 44 45 46 48 49 50 51
15 17 18 18 18 18 19 19 19 19 20 20 21 21 20 19 18 20 22 24 26 27 28 28 29 29 28 27 28 30 32 34 35 33 32 30 30 30 30 30 30 31 33 34 35 36 36 36 37 37 37 38 38 39 39 40 41 42 43 44 43 43 43 45 47 47 46 47 48 49 50 51 52 54
16 16 17 18 19 19 19 20 20 19 18 19 20 20 20 20 20 20 20 23 25 27 28 27 26 27 27 27 29 31 33 34 34 33 32 30 28 29 31 30 29 30 32 35 35 35 35 35 36 36 36 37 37 38 39 41 42 43 44 44 44 44 46 48 49 49 49 50 50 51 52 53 54 55
18 18 17 16 17 17 15 16 17 17 16 17 17 18 19 21 23 23 24 26 27 27 27 25 23 24 26 28 31 32 32 31 32 32 32 30 29 31 30 28 28 30 33 35 35 34 33 34 36 38 38 40 41 41 41 42 44 45 46 46 47 49 52 52 52 51 51 51 52 53 54 55 55 56
19 19 19 18 18 17 16 14 15 16 17 17 18 19 20 21 23 24 26 28 30 30 29 27 25 24 25 27 29 30 30 30 30 29 29 29 31 31 29 28 30 33 33 33 34 34 34 35 37 40 42 43 42 42 42 43 45 46 47 48 50 53 55 55 55 54 54 54 54 56 57 57 58 60
20 20 21 21 20 20 18 16 15 16 17 17 18 19 21 22 23 24 24 27 30 32 32 31 30 29 28 28 28 29 29 30 31 32 32 33 34 33 30 30 33 35 35 34 35 36 38 40 42 43 43 42 42 42 43 44 45 45 47 49 53 55 57 58 59 59 57 57 58 60 61 62 64 65
21 21 21 21 21 21 20 18 17 18 19 19 19 20 21 21 23 24 25 26 28 30 31 31 31 31 31 30 30 31 33 34 35 35 35 36 37 37 36 36 36 38 39 40 41 42 44 46 46 45 45 45 46 48 48 48 49 50 51 54 57 59 60 62 63 63 61 61 62 64 66 67 67 68
22 22 21 21 22 22 22 22 21 22 22 23 24 25 25 24 23 24 25 26 27 28 30 30 31 32 32 33 33 34 36 37 38 38 37 36 37 39 40 40 40 42 44 46 48 49 50 50 49 48 48 48 48 49 50 52 54 56 58 59 60 61 62 63 63 64 64 65 66 67 68 68 69 69
23 23 23 23 22 22 23 24 24 25 26 27 27 28 28 28 28 27 27 28 29 29 30 31 31 32 32 33 34 35 36 38 40 41 42 42 42 43 44 45 46 48 50 50 51 51 52 53 54 55 55 53 50 49 51 54 56 59 60 60 60 61 62 63 63 65 66 67 68 69 69 70 70 69
26 25 25 25 25 25 25 25 26 26 27 28 29 30 30 31 32 32 32 32 33 34 34 35 35 36 37 37 37 37 38 39 40 42 44 45 47 48 49 50 51 52 53 53 53 53 55 56 57 58 59 58 55 53 54 56 58 59 60 61 62 63 64 64 65 66 67 69 69 70 71 71 70 69
28 28 28 28 28 28 28 29 29 30 30 31 32 32 33 33 34 36 36 36 37 37 38 39 40 41 42 42 41 40 41 42 43 45 46 47 48 49 51 52 53 54 55 56 56 57 58 59 59 59 59 59 58 57 57 58 60 61 63 63 64 64 65 66 67 68 69 70 71 71 71 70 69 67
30 31 31 31 31 31 31 31 32 33 34 34 35 35 36 37 37 38 39 40 40 41 41 42 43 44 45 46 46 46 46 47 48 50 52 53 54 55 55 56 56 56 57 57 57 57 58 59 59 60 60 60 60 60 60 61 62 63 64 64 64 64 65 67 68 70 71 72 72 72 71 68 66 62
32 33 33 33 33 33 32 32 33 34 35 36 37 38 39 39 40 41 41 42 43 44 45 46 47 48 48 49 50 51 52 52 53 54 56 57 58 60 61 61 61 61 61 60 59 58 58 59 60 61 62 63 63 63 63 63 63 63 64 64 64 64 65 67 69 71 72 72 72 70 67 64 60 57
31 32 32 32 32 32 32 31 31 31 32 34 35 37 38 39 40 41 41 42 43 44 45 46 48 49 50 51 52 53 55 56 57 59 60 61 61 62 63 64 65 65 65 64 63 61 59 59 59 60 62 63 63 64 64 63 62 62 62 62 63 64 65 67 69 69 69 69 67 64 61 58 54 52
27 27 27 28 27 27 27 27 27 27 27 27 28 29 30 32 33 34 35 36 38 39 40 42 44 45 47 48 50 52 53 55 57 59 61 63 64 65 66 67 68 69 69 69 68 66 64 63 61 60 60 61 61 61 61 60 60 60 60 60 61 62 64 65 65 65 63 62 59 56 54 51 48 46
21 21 21 21 21 22 21 22 22 22 22 22 23 23 24 24 25 27 28 29 30 31 33 34 36 37 39 41 43 46 48 51 53 55 58 60 61 63 64 65 67 69 70 71 72 71 71 69 68 66 64 63 62 62 62 61 61 60 60 60 60 60 60 60 60 59 57 54 52 49 47 44 42 40
16 16 17 17 17 18 18 19 19 20 21 21 22 22 23 23 24 25 26 26 27 28 29 30 31 32 34 35 37 39 41 44 47 49 52 54 56 57 59 59 60 61 63 65 67 68 68 68 67 66 65 64 63 62 61 61 60 60 60 59 58 57 57 55 54 53 51 48 46 43 41 39 37 36
16 16 16 17 17 17 18 19 20 21 21 22 23 23 24 25 26 26 27 28 28 29 30 30 31 31 32 33 34 35 37 38 40 43 45 47 48 50 51 52 52 53 54 55 56 57 58 59 59 59 59 58 59 59 59 59 58 57 56 55 54 53 51 50 49 47 45 42 40 37 35 34 32 31
17 17 17 18 18 19 19 19 20 21 22 22 23 23 24 25 26 27 28 28 29 30 31 31 32 32 33 34 35 36 37 38 39 40 41 42 43 43 44 44 45 45 46 46 47 47 48 50 52 52 52 52 53 54 55 54 53 52 50 48 47 47 46 45 43 42 40 37 35 33 31 30 29 28
17 18 18 19 20 20 21 21 21 21 22 22 22 23 23 24 25 26 27 28 29 29 30 31 31 32 33 34 35 36 37 38 39 39 40 40 41 41 40 40 40 40 40 41 41 41 41 43 44 46 46 46 46 46 46 46 44 43 42 41 41 40 39 38 36 34 32 30 29 28 27 27 26 26
19 20 21 22 22 22 22 22 22 22 22 22 22 22 22 23 24 25 26 27 28 29 29 30 31 32 32 33 34 36 37 38 39 39 39 39 39 39 39 39 39 38 37 36 37 37 37 37 39 40 40 41 40 40 39 39 38 37 37 36 34 32 31 29 27 26 25 24 24 25 25 25 24 23
21 22 22 22 22 22 22 22 22 22 22 22 22 22 22 23 23 24 25 26 27 28 29 30 31 31 32 33 34 35 37 38 39 39 38 37 37 37 38 38 38 37 35 33 32 32 32 34 34 34 35 37 37 36 35 35 33 33 32 31 28 26 24 23 22 22 22 23 23 23 23 22 21 21
21 21 22 22 22 22 22 22 22 22 22 22 22 23 23 23 24 24 25 26 27 28 29 30 30 31 32 33 34 35 36 38 39 39 38 36 35 35 36 37 37 36 33 31 29 28 28 29 29 29 30 31 32 32 31 31 29 28 26 24 23 21 21 21 22 22 23 23 22 21 20 19 19 19
20 21 21 22 22 22 22 23 23 23 23 23 24 24 24 24 25 25 26 26 27 28 29 30 31 32 32 33 34 35 36 37 38 38 37 36 35 34 35 35 35 33 31 28 26 25 24 24 24 24 26 27 28 27 27 26 24 23 22 21 21 21 22 22 22 22 22 21 20 19 18 18 18 18
21 21 22 23 23 24 24 24 24 24 25 25 25 25 25 25 26 26 26 27 28 29 30 31 31 32 33 33 34 35 35 36 37 38 37 36 35 34 33 33 32 30 29 27 25 24 23 22 21 22 23 24 24 24 22 21 20 20 20 21 21 22 22 21 21 21 20 19 18 18 17 17 17 17
Wind_Direction
255 259 262 266 258 232 219 222 222 219 219 221 223 224 226 227 230 231 231 231 232 233 234 236 237 237 237 238 240 241 243 244 244 246 248 250 251 252 252 251 249 248 246 245 244 246 247 250 254 258 261 264 266 268 269 268 269 270 271 272 273 274 275 275 276 276 275 274 273 272 272 273 273 273
255 260 265 269 256 227 217 221 222 219 220 222 223 225 226 228 229 230 231 232 234 235 236 239 241 240 238 239 240 241 243 243 243 246 248 249 250 251 251 250 248 247 245 244 243 245 247 249 253 257 261 263 265 266 267 267 267 268 270 271 271 271 272 273 273 274 274 274 274 274 275 275 274 274
256 262 267 269 260 233 220 222 224 223 223 225 226 227 229 230 230 229 232 234 235 235 237 241 243 242 240 240 241 243 244 243 243 245 247 249 249 249 249 249 248 247 246 245 243 244 248 252 254 258 260 262 263 264 266 266 267 267 268 269 270 270 271 271 272 273 274 275 276 276 277 277 277 277
256 263 268 267 262 246 229 223 224 226 226 226 227 229 232 233 231 230 232 235 235 234 237 241 244 243 241 240 241 243 243 242 242 245 246 247 247 247 248 248 248 248 247 245 244 244 248 253 256 258 259 260 261 263 264 266 266 267 267 268 269 270 272 273 274 275 276 276 277 277 277 278 278 278
254 258 265 267 261 254 244 231 224 225 227 227 228 230 233 235 234 232 232 232 233 234 236 240 243 243 241 241 242 242 241 241 242 243 244 245 245 246 247 248 248 248 247 246 246 247 250 254 257 258 258 258 259 261 263 265 266 266 267 268 270 272 273 274 275 276 276 277 277 277 278 278 278 278
253 254 260 267 265 256 250 242 233 230 230 230 231 233 235 237 237 235 232 230 231 233 235 239 243 243 241 240 241 242 241 240 240 241 243 244 245 246 247 248 248 248 247 247 248 251 253 256 257 258 258 258 259 261 263 264 266 266 267 268 270 272 273 274 276 276 277 277 277 278 278 278 278 278
255 257 261 266 267 259 250 247 243 239 237 234 233 234 236 238 239 237 234 232 234 236 237 239 243 243 241 241 241 241 241 241 240 241 243 245 246 246 247 247 247 247 247 248 251 254 256 257 257 258 259 260 260 261 263 264 265 266 267 269 270 272 273 275 276 277 278 278 279 279 279 280 280 280
260 259 260 261 260 255 249 245 244 244 242 239 236 236 237 239 239 238 237 237 238 240 240 240 242 244 243 244 244 244 243 242 240 240 242 244 245 245 246 247 247 247 248 250 253 255 257 258 258 259 260 262 262 263 263 264 265 266 268 270 272 273 274 276 277 278 279 279 278 278 278 279 279 280
262 259 258 255 252 250 247 245 244 244 244 241 239 240 241 241 239 239 240 240 242 244 241 238 239 242 241 240 242 243 243 242 241 240 241 243 244 245 246 246 247 249 250 252 255 258 259 260 260 261 263 264 264 264 265 265 266 268 269 271 273 275 276 277 278 278 277 276 276 276 276 277 277 278
261 258 257 255 252 250 248 247 246 245 242 239 239 240 241 239 237 237 239 242 244 245 242 238 238 241 241 239 239 241 241 240 240 239 239 242 245 246 246 246 247 249 251 253 257 260 261 261 262 263 264 265 266 266 267 267 268 270 272 274 275 276 277 277 276 276 276 276 276 276 276 276 276 276
265 261 258 254 249 247 247 247 246 243 239 238 239 240 242 242 241 242 243 245 247 247 245 243 241 242 241 239 239 241 241 240 239 239 241 245 247 246 246 246 248 250 252 256 259 261 262 262 262 263 264 265 267 267 268 269 270 272 274 275 275 275 276 276 277 278 278 278 278 277 277 276 275 275
266 264 260 256 251 248 248 248 247 245 241 240 241 243 244 246 247 248 248 248 250 250 248 246 243 243 241 238 239 242 242 239 238 240 242 245 246 245 246 247 248 251 254 257 259 260 261 261 261 262 264 266 267 269 270 271 272 273 273 274 274 275 276 277 278 279 279 279 278 278 277 276 275 273
266 266 264 261 257 253 250 248 248 248 245 243 244 245 246 247 249 250 250 250 251 251 250 248 245 245 244 240 239 243 244 240 238 240 243 246 246 246 247 248 250 252 254 256 257 259 260 261 262 263 265 267 269 270 270 271 271 272 272 273 274 275 276 277 278 279 279 279 278 277 277 275 273 271
264 265 264 262 259 256 253 251 250 250 250 248 247 247 249 250 250 252 252 252 252 252 252 250 247 245 244 241 241 244 245 243 243 243 244 247 248 247 248 249 250 252 253 255 257 259 261 263 264 265 267 269 269 270 270 270 270 271 272 274 275 276 276 277 278 279 279 278 277 277 276 274 272 271
265 265 264 261 259 256 254 254 254 253 254 253 251 250 251 252 251 251 253 254 253 253 252 250 248 246 244 242 241 242 242 244 247 247 247 248 247 247 247 249 251 253 254 256 259 261 263 263 264 266 268 269 269 269 269 270 271 272 273 274 275 276 277 279 279 279 278 277 276 275 274 273 273 274
268 267 266 264 261 258 255 255 256 256 257 257 255 253 252 252 251 251 252 254 253 252 250 248 246 246 244 243 244 243 242 245 247 248 250 250 247 245 247 250 253 255 256 258 260 261 261 262 264 267 269 270 270 270 270 270 271 272 273 274 276 278 279 280 279 278 276 274 273 273 273 273 274 276
271 270 268 265 262 260 258 257 257 257 257 259 259 258 256 255 254 252 251 251 251 250 250 248 246 245 244 244 245 242 241 244 246 248 252 252 247 246 252 256 257 256 256 258 260 261 263 266 268 270 270 270 270 270 271 271 271 272 274 276 278 279 279 278 277 274 274 273 273 273 273 273 275 278
275 271 268 264 261 261 260 260 259 257 256 256 257 258 256 256 257 253 249 248 249 250 250 249 246 245 243 244 243 239 238 241 245 249 252 252 251 255 261 263 259 255 257 260 262 264 266 268 269 270 270 270 270 271 271 271 272 273 274 275 276 277 277 276 273 272 272 273 273 273 273 273 275 277
281 277 274 270 266 263 262 262 262 260 259 257 255 256 257 257 256 252 248 248 249 250 250 248 245 243 241 240 238 235 235 239 244 248 251 254 258 262 263 261 258 257 260 262 263 264 265 266 267 268 268 269 270 271 272 273 273 274 274 275 275 276 276 275 274 273 273 273 274 274 274 275 276 278
290 285 282 279 274 269 265 264 262 261 260 258 257 257 257 258 255 250 249 250 250 250 249 245 243 241 241 239 236 233 235 240 246 250 254 259 262 262 261 261 261 261 261 261 261 263 263 264 265 266 267 269 271 273 274 274 274 275 276 277 277 277 276 275 274 275 276 277 277 277 276 276 277 279
294 287 283 283 283 277 269 263 260 257 255 254 256 256 255 257 257 252 248 248 248 248 247 244 241 240 241 241 239 237 238 242 248 254 259 262 262 262 262 263 262 261 261 262 262 261 262 264 266 267 269 270 273 274 275 276 276 277 278 278 278 279 278 276 275 275 276 277 277 277 277 277 277 279
296 290 283 281 280 278 273 266 261 259 257 255 254 252 251 253 256 251 246 243 243 243 243 242 240 239 239 240 242 242 241 242 245 251 255 257 258 259 259 260 261 261 262 262 263 263 264 265 267 268 270 272 273 274 275 277 278 279 279 279 280 281 280 278 277 277 276 275 275 276 277 278 279 280
298 295 290 285 282 277 269 261 256 256 257 255 253 251 249 249 250 248 244 240 239 239 240 240 242 241 239 237 239 242 242 243 244 246 248 252 256 258 259 264 266 264 261 259 261 264 265 267 268 270 271 273 273 273 275 277 278 278 278 278 279 279 277 276 276 277 277 277 278 279 280 282 283 283
298 296 295 295 292 286 275 263 257 255 257 258 257 257 256 252 249 248 246 242 239 238 238 237 239 242 240 236 237 239 241 243 247 251 252 253 255 257 260 265 263 258 256 257 260 264 265 266 267 268 270 272 273 273 275 277 278 279 280 280 280 279 278 278 278 279 280 280 281 283 284 284 284 283
298 297 295 294 292 292 293 289 280 270 264 262 264 264 262 257 253 251 249 245 241 239 236 233 231 233 236 235 235 235 237 239 245 252 255 255 256 258 259 259 255 251 252 256 259 261 262 263 265 267 271 274 274 273 274 275 275 277 277 277 275 275 277 279 280 281 281 281 282 283 283 282 281 281
296 296 296 295 293 293 294 294 291 282 270 261 260 261 258 254 252 251 249 247 244 241 239 238 235 233 233 233 231 232 239 246 252 257 260 259 259 259 257 253 251 250 253 256 257 259 262 265 268 269 270 271 270 270 272 272 270 268 267 267 266 268 273 277 278 279 280 280 280 280 280 279 279 280
290 291 291 292 292 292 291 288 285 281 272 264 264 267 267 262 257 254 254 255 252 247 244 245 245 244 243 243 242 244 251 257 259 260 262 261 259 257 254 250 249 250 253 255 257 261 265 269 271 269 268 268 268 269 271 271 269 267 265 265 266 269 273 275 277 278 279 279 279 279 280 280 280 280
285 286 286 286 286 287 287 286 283 279 275 272 273 275 276 274 270 265 264 265 262 256 253 253 255 256 256 257 257 257 258 260 260 259 260 258 256 255 254 251 250 251 254 256 259 262 266 268 269 268 268 268 269 270 271 271 270 269 268 269 271 273 274 275 277 277 277 277 278 279 280 280 280 279
283 282 281 281 281 280 280 280 280 279 278 277 276 275 275 275 274 272 269 268 266 264 264 265 266 266 267 268 269 269 268 267 267 266 264 261 258 256 256 255 256 257 259 260 262 263 265 267 268 268 267 266 266 268 270 270 271 272 273 274 275 275 275 276 277 277 277 278 278 278 278 278 277 276
285 283 281 279 279 278 278 277 276 276 276 276 276 276 275 275 274 273 271 269 267 267 268 270 271 272 274 275 277 276 274 271 269 269 268 266 264 261 260 260 261 263 264 265 266 266 266 267 269 268 267 265 263 264 267 270 272 274 274 274 274 275 276 276 277 277 278 278 278 278 277 277 276 275
285 285 283 282 279 277 277 276 276 275 274 274 274 274 274 274 274 274 274 273 272 271 270 270 270 270 271 273 273 272 270 267 265 265 265 265 264 262 261 261 262 263 265 266 267 267 267 268 268 267 266 266 266 266 268 270 271 272 272 272 273 274 275 276 276 277 277 277 276 276 276 275 275 274
285 285 285 285 283 281 278 276 275 275 275 275 275 274 275 275 275 275 276 276 275 275 274 273 272 272 271 272 271 270 268 266 265 264 264 265 265 265 265 265 266 267 268 268 268 268 267 267 266 266 266 268 269 268 268 269 269 271 272 273 274 275 275 276 276 275 275 275 275 274 274 274 274 273
283 283 283 284 284 283 282 279 277 276 275 275 276 276 277 277 278 278 278 278 277 277 277 277 276 276 275 275 274 273 272 270 268 267 266 266 266 267 268 269 270 270 270 270 270 268 267 267 267 267 268 269 269 268 268 269 270 271 272 273 274 274 274 274 274 273 273 273 273 273 273 273 273 273
281 282 283 284 284 285 285 285 283 282 280 278 278 278 278 279 280 280 280 280 280 280 280 279 279 279 279 278 278 277 276 275 274 272 271 270 269 269 268 268 268 269 269 268 268 268 267 266 266 266 267 267 267 267 268 268 269 270 271 272 272 272 272 272 272 272 272 272 272 273 273 273 273 273
285 285 286 287 288 289 290 291 292 292 291 290 288 287 286 285 286 286 286 287 286 286 286 285 285 284 283 283 282 281 281 280 278 277 276 274 273 272 270 269 269 269 269 269 269 268 267 266 266 266 265 265 265 266 267 267 268 269 270 271 271 272 272 273 273 273 273 274 274 274 274 274 275 276
291 291 291 292 293 294 296 298 299 300 301 302 301 301 300 298 297 296 295 295 295 295 295 294 294 293 292 290 289 287 286 285 283 282 280 278 277 275 274 272 271 270 269 269 269 269 269 269 268 268 268 268 268 268 269 268 269 270 271 271 272 273 274 275 276 276 276 276 276 276 276 276 278 280
301 300 299 299 299 300 301 302 303 303 304 304 305 305 305 304 304 304 304 304 304 304 304 303 303 303 302 300 299 297 295 293 291 288 286 284 282 280 279 277 276 274 273 272 271 271 271 271 270 269 269 269 270 270 270 270 271 271 272 273 275 276 276 277 277 276 276 276 275 275 277 279 282 285
306 305 303 302 302 301 301 301 301 301 302 303 303 304 304 305 306 306 307 308 309 309 310 311 312 312 313 312 312 310 307 304 301 298 295 292 290 288 286 284 283 281 280 278 276 275 273 272 271 269 268 268 268 268 268 270 271 272 273 275 275 275 276 276 275 274 274 274 274 276 279 282 285 288
305 305 304 303 302 302 301 301 300 301 301 302 303 304 305 307 308 308 309 310 311 312 313 314 316 318 319 321 322 322 320 318 314 310 305 301 298 296 295 293 292 290 287 285 283 280 277 274 272 270 269 268 268 268 269 269 270 272 273 273 273 273 273 273 272 271 271 272 273 277 281 284 285 286
306 305 304 304 303 301 300 300 300 300 301 302 303 305 307 308 310 311 312 313 314 315 316 317 319 320 322 325 327 328 328 327 325 320 314 309 305 303 302 301 299 297 294 291 288 285 282 278 276 274 273 272 273 273 274 274 273 272 272 271 270 270 269 268 268 268 269 271 274 278 280 282 282 283
307 305 304 303 302 300 299 298 297 297 298 300 302 304 307 309 312 314 315 317 318 318 319 320 321 323 325 327 329 331 332 333 331 328 321 315 310 308 307 306 304 302 299 295 291 288 284 280 278 277 276 275 275 276 277 278 277 275 273 271 269 267 265 265 266 268 271 273 275 277 278 278 280 282
309 308 307 306 304 303 301 300 298 297 298 299 301 304 307 310 313 315 317 319 320 321 322 324 325 326 327 328 330 332 334 336 335 333 327 320 314 311 311 310 309 307 303 299 294 290 286 283 280 279 278 277 277 278 278 278 276 273 271 270 268 267 268 270 272 274 274 275 276 276 278 279 282 285
314 314 313 312 311 309 308 306 303 301 300 300 302 304 306 309 312 315 318 320 322 323 325 326 327 328 329 330 331 333 335 337 338 336 332 325 319 316 315 314 313 310 307 302 297 291 286 284 283 282 280 279 279 278 277 275 273 270 269 269 270 272 274 275 276 276 276 276 276 277 279 281 284 286
320 320 320 319 317 316 314 312 310 308 306 305 305 305 307 309 312 315 317 320 322 324 326 327 328 329 330 332 332 334 335 337 338 338 335 330 324 321 320 319 316 313 311 307 300 292 286 282 282 281 279 278 278 277 275 272 268 265 266 268 270 272 272 272 272 273 273 274 275 276 278 280 281 283
322 322 323 322 322 321 320 318 315 313 311 309 308 308 308 309 311 314 317 319 322 324 325 327 329 330 331 333 333 334 336 337 338 339 337 334 329 325 324 323 320 316 314 311 305 297 288 282 281 280 278 277 275 273 270 265 261 261 264 266 267 268 268 267 268 269 270 271 272 273 275 277 279 280
Height
5735 5736 5735 5735 5735 5735 5737 5739 5740 5742 5744 5746 5748 5750 5751 5752 5754 5756 5758 5759 5759 5761 5762 5763 5764 5764 5765 5766 5767 5768 5769 5770 5770 5770 5771 5772 5772 5773 5773 5774 5774 5774 5775 5775 5775 5774 5774 5774 5775 5775 5775 5775 5775 5775 5775 5775 5775 5775 5774 5774 5774 5773 5773 5773 5773 5772 5772 5771 5770 5770 5769 5769 5768 5767
5732 5733 5733 5732 5732 5733 5734 5736 5738 5740 5742 5744 5745 5747 5748 5749 5751 5753 5755 5755 5756 5758 5760 5761 5760 5761 5763 5764 5765 5766 5766 5767 5767 5768 5768 5769 5770 5770 5771 5771 5772 5772 5773 5773 5772 5772 5772 5772 5772 5772 5772 5772 5772 5772 5772 5772 5772 5772 5772 5771 5771 5771 5770 5770 5770 5770 5769 5769 5768 5767 5767 5766 5766 5765
5729 5730 5730 5730 5730 5731 5733 5734 5736 5738 5740 5741 5743 5745 5746 5747 5748 5750 5751 5752 5754 5756 5758 5757 5757 5758 5760 5761 5762 5763 5764 5764 5764 5765 5765 5766 5767 5768 5768 5769 5769 5770 5770 5770 5770 5770 5769 5769 5770 5770 5770 5770 5769 5769 5769 5769 5769 5769 5769 5769 5768 5768 5768 5767 5767 5767 5766 5766 5765 5765 5764 5764 5763 5762
5727 5728 5729 5729 5729 5730 5731 5732 5734 5736 5738 5739 5741 5742 5743 5744 5745 5746 5748 5749 5751 5753 5754 5753 5753 5755 5757 5759 5759 5760 5760 5761 5761 5762 5762 5763 5764 5765 5765 5766 5767 5767 5768 5768 5768 5768 5768 5767 5767 5768 5767 5767 5767 5767 5767 5767 5766 5766 5766 5766 5765 5765 5765 5764 5764 5764 5763 5763 5762 5762 5761 5761 5760 5759
5725 5726 5727 5728 5728 5728 5730 5731 5732 5734 5735 5737 5738 5739 5740 5741 5742 5744 5745 5746 5748 5749 5750 5749 5750 5752 5755 5756 5756 5757 5757 5758 5758 5759 5760 5760 5761 5762 5762 5763 5764 5764 5765 5765 5765 5765 5765 5765 5764 5765 5764 5764 5764 5764 5764 5764 5763 5763 5763 5762 5762 5762 5762 5761 5761 5760 5760 5759 5759 5758 5758 5758 5757 5756
5723 5724 5725 5726 5726 5727 5728 5729 5731 5732 5733 5734 5735 5737 5738 5739 5740 5741 5741 5742 5744 5745 5746 5746 5747 5749 5752 5753 5753 5753 5753 5754 5755 5756 5756 5757 5758 5759 5760 5760 5761 5762 5762 5762 5762 5762 5762 5762 5761 5761 5761 5761 5761 5761 5761 5761 5760 5760 5760 5759 5759 5759 5758 5758 5757 5757 5756 5756 5755 5755 5754 5754 5753 5753
5721 5722 5723 5724 5725 5725 5726 5727 5728 5729 5730 5731 5732 5734 5736 5736 5737 5738 5738 5739 5740 5741 5743 5743 5744 5746 5748 5749 5750 5750 5750 5751 5752 5753 5753 5754 5755 5756 5757 5757 5758 5758 5759 5759 5759 5759 5759 5759 5758 5758 5758 5758 5759 5758 5758 5758 5757 5757 5757 5756 5756 5756 5755 5755 5754 5754 5753 5752 5752 5751 5751 5750 5749 5749
5719 5720 5722 5723 5723 5723 5723 5724 5725 5726 5728 5729 5730 5731 5733 5733 5734 5735 5735 5736 5737 5738 5740 5740 5741 5743 5745 5746 5746 5746 5747 5748 5749 5750 5750 5751 5752 5753 5754 5754 5755 5755 5756 5756 5755 5755 5755 5756 5755 5755 5755 5755 5755 5755 5755 5754 5754 5754 5754 5754 5753 5753 5752 5752 5751 5751 5750 5749 5748 5747 5747 5746 5745 5745
5718 5718 5719 5720 5721 5721 5721 5721 5722 5723 5725 5726 5727 5729 5730 5731 5731 5732 5733 5734 5734 5735 5736 5737 5738 5740 5742 5742 5741 5742 5744 5745 5746 5747 5747 5748 5749 5750 5750 5751 5751 5752 5752 5752 5752 5752 5752 5752 5752 5752 5752 5752 5752 5751 5751 5751 5750 5750 5750 5750 5750 5750 5749 5749 5748 5747 5746 5745 5744 5743 5743 5742 5741 5741
5716 5716 5717 5717 5718 5718 5718 5719 5719 5720 5722 5723 5725 5726 5727 5728 5729 5730 5730 5731 5732 5733 5733 5734 5735 5736 5738 5738 5737 5738 5740 5741 5743 5744 5744 5745 5746 5746 5747 5747 5747 5748 5748 5748 5749 5749 5749 5749 5749 5749 5749 5748 5748 5748 5748 5747 5747 5747 5747 5747 5747 5746 5746 5745 5744 5743 5742 5741 5740 5739 5739 5738 5737 5737
5714 5714 5714 5714 5715 5715 5715 5716 5716 5717 5719 5720 5721 5723 5724 5725 5726 5727 5728 5728 5729 5730 5730 5731 5732 5733 5734 5734 5735 5735 5736 5738 5740 5741 5741 5741 5742 5742 5743 5743 5744 5744 5745 5745 5745 5745 5745 5745 5745 5745 5745 5744 5744 5744 5744 5743 5743 5743 5743 5743 5743 5742 5742 5741 5740 5739 5738 5738 5736 5735 5734 5733 5733 5732
5711 5712 5712 5712 5712 5712 5712 5713 5714 5714 5716 5717 5719 5720 5721 5722 5723 5723 5724 5725 5726 5726 5727 5728 5728 5729 5730 5731 5732 5732 5733 5736 5737 5737 5737 5737 5738 5738 5738 5739 5740 5741 5741 5741 5741 5741 5741 5741 5741 5741 5741 5740 5740 5740 5740 5739 5739 5739 5739 5738 5738 5738 5738 5737 5736 5736 5735 5734 5732 5731 5730 5729 5728 5728
5709 5709 5709 5709 5709 5709 5710 5710 5711 5712 5713 5715 5716 5717 5717 5718 5719 5720 5721 5722 5723 5723 5724 5725 5725 5726 5727 5728 5729 5729 5731 5732 5731 5731 5732 5733 5733 5734 5735 5736 5737 5737 5737 5737 5737 5737 5737 5737 5737 5737 5737 5736 5736 5736 5736 5735 5735 5734 5734 5734 5734 5734 5734 5733 5732 5731 5730 5729 5728 5727 5726 5725 5724 5723
5708 5707 5707 5707 5707 5707 5707 5708 5709 5710 5711 5712 5713 5713 5713 5714 5715 5716 5717 5718 5719 5719 5720 5721 5722 5723 5724 5725 5726 5727 5727 5727 5727 5728 5729 5729 5730 5731 5732 5732 5733 5732 5732 5732 5732 5732 5733 5733 5733 5733 5732 5732 5732 5732 5731 5731 5730 5730 5730 5730 5730 5730 5729 5729 5728 5727 5726 5725 5724 5723 5721 5720 5720 5719
5706 5705 5705 5705 5705 5705 5705 5706 5706 5707 5708 5708 5709 5710 5710 5711 5711 5712 5713 5714 5715 5715 5716 5717 5718 5720 5721 5721 5722 5723 5723 5723 5723 5724 5725 5725 5726 5727 5728 5728 5728 5728 5728 5728 5728 5728 5729 5729 5729 5728 5728 5728 5728 5727 5727 5726 5726 5726 5725 5725 5725 5725 5725 5724 5723 5722 5721 5720 5719 5718 5717 5716 5715 5714
5703 5703 5703 5703 5702 5702 5702 5703 5704 5705 5705 5705 5706 5707 5707 5707 5708 5709 5710 5710 5711 5712 5713 5713 5714 5716 5718 5718 5719 5720 5720 5719 5719 5720 5721 5722 5722 5723 5723 5723 5723 5723 5723 5724 5724 5724 5725 5725 5724 5724 5724 5724 5723 5723 5722 5722 5722 5721 5721 5721 5720 5720 5720 5719 5719 5718 5716 5715 5714 5713 5712 5711 5710 5709
5700 5700 5700 5700 5700 5699 5700 5701 5701 5702 5702 5703 5703 5704 5704 5704 5705 5706 5707 5707 5708 5709 5709 5710 5711 5713 5714 5715 5716 5717 5716 5714 5715 5716 5717 5717 5718 5718 5719 5719 5719 5719 5719 5720 5720 5720 5720 5720 5720 5720 5720 5719 5719 5718 5718 5718 5717 5717 5716 5716 5715 5715 5715 5714 5713 5712 5711 5710 5709 5708 5707 5706 5705 5704
5698 5698 5697 5697 5697 5697 5698 5698 5699 5699 5699 5700 5700 5700 5701 5701 5701 5702 5703 5704 5705 5706 5706 5707 5708 5709 5711 5712 5713 5713 5712 5711 5711 5712 5713 5713 5714 5714 5714 5714 5714 5715 5715 5715 5715 5716 5716 5716 5716 5716 5715 5715 5714 5714 5714 5713 5713 5712 5712 5711 5710 5710 5709 5709 5708 5707 5706 5705 5704 5703 5702 5701 5700 5699
5696 5695 5695 5695 5695 5695 5695 5696 5696 5696 5696 5697 5697 5697 5697 5698 5698 5699 5700 5701 5701 5702 5703 5704 5705 5705 5706 5708 5708 5709 5708 5708 5708 5708 5709 5709 5710 5710 5710 5710 5710 5711 5711 5711 5711 5711 5712 5711 5711 5711 5711 5711 5710 5710 5709 5708 5708 5707 5706 5706 5705 5705 5704 5703 5702 5701 5700 5699 5699 5697 5696 5695 5694 5693
5694 5694 5693 5693 5693 5693 5693 5693 5693 5693 5693 5694 5694 5694 5694 5694 5695 5696 5697 5698 5698 5699 5700 5700 5701 5702 5702 5703 5704 5705 5706 5706 5704 5704 5705 5705 5705 5706 5706 5706 5706 5706 5706 5706 5706 5707 5707 5707 5707 5707 5707 5706 5705 5705 5704 5703 5702 5702 5701 5700 5699 5699 5698 5698 5697 5695 5694 5694 5693 5692 5690 5689 5688 5686
5692 5692 5691 5691 5691 5690 5690 5690 5690 5690 5690 5691 5691 5691 5691 5691 5692 5693 5694 5695 5695 5696 5696 5696 5697 5698 5699 5700 5700 5702 5704 5703 5701 5701 5701 5701 5701 5702 5702 5702 5702 5702 5701 5701 5702 5702 5702 5702 5702 5702 5701 5701 5700 5699 5699 5698 5697 5696 5696 5694 5693 5693 5692 5691 5690 5689 5689 5688 5686 5685 5683 5682 5681 5680
5690 5690 5690 5689 5689 5688 5688 5687 5687 5687 5688 5688 5688 5688 5689 5689 5689 5689 5690 5691 5691 5692 5692 5693 5694 5694 5695 5696 5697 5698 5699 5698 5697 5698 5698 5697 5698 5698 5697 5697 5698 5697 5697 5697 5697 5697 5697 5698 5697 5696 5696 5695 5695 5694 5694 5693 5692 5691 5690 5688 5688 5687 5686 5684 5682 5682 5682 5681 5679 5678 5677 5675 5674 5673
5689 5689 5688 5688 5687 5687 5686 5686 5686 5685 5685 5685 5685 5686 5686 5686 5686 5687 5687 5687 5688 5688 5689 5689 5690 5690 5691 5693 5694 5694 5694 5694 5694 5694 5693 5694 5694 5693 5693 5693 5693 5693 5693 5693 5692 5692 5693 5693 5692 5691 5691 5690 5690 5690 5689 5688 5686 5685 5684 5683 5683 5681 5679 5677 5676 5675 5674 5673 5672 5671 5670 5668 5666 5665
5688 5687 5687 5686 5686 5685 5685 5684 5684 5684 5683 5683 5683 5684 5684 5684 5684 5684 5684 5684 5684 5685 5685 5686 5686 5686 5687 5689 5689 5690 5690 5690 5689 5689 5689 5689 5689 5689 5689 5689 5689 5689 5689 5689 5688 5688 5688 5688 5688 5687 5686 5686 5685 5684 5683 5682 5680 5679 5678 5678 5677 5674 5671 5670 5670 5669 5667 5665 5664 5663 5662 5661 5659 5657
5687 5686 5685 5685 5684 5684 5683 5683 5683 5682 5682 5681 5681 5682 5682 5682 5682 5682 5681 5681 5681 5681 5681 5682 5682 5682 5683 5684 5684 5685 5685 5684 5685 5685 5685 5685 5685 5685 5685 5685 5685 5685 5685 5684 5684 5684 5683 5683 5683 5682 5681 5680 5679 5678 5676 5675 5674 5673 5673 5672 5669 5666 5664 5663 5663 5661 5660 5659 5658 5656 5655 5653 5652 5650
5685 5685 5684 5683 5683 5682 5682 5682 5681 5681 5680 5680 5680 5680 5680 5680 5680 5680 5679 5679 5679 5679 5679 5679 5679 5679 5679 5680 5680 5681 5680 5679 5680 5681 5680 5680 5680 5680 5680 5680 5680 5680 5679 5679 5679 5678 5678 5678 5677 5677 5676 5675 5673 5671 5670 5669 5668 5667 5666 5664 5662 5659 5658 5657 5655 5654 5653 5652 5650 5648 5647 5646 5644 5642
5683 5683 5682 5681 5681 5680 5680 5680 5680 5679 5679 5679 5678 5678 5678 5678 5678 5677 5677 5677 5677 5677 5676 5676 5676 5676 5676 5677 5677 5677 5676 5676 5676 5676 5676 5676 5675 5675 5675 5675 5674 5674 5674 5674 5673 5673 5672 5671 5670 5670 5670 5669 5666 5665 5664 5663 5662 5660 5658 5656 5654 5653 5652 5650 5648 5647 5646 5645 5642 5640 5638 5637 5636 5634
5681 5681 5680 5680 5679 5678 5678 5677 5677 5677 5677 5676 5676 5676 5675 5675 5675 5675 5674 5674 5674 5674 5674 5673 5673 5673 5673 5673 5673 5673 5673 5672 5672 5672 5672 5671 5671 5671 5670 5670 5669 5669 5669 5668 5667 5667 5666 5665 5664 5663 5663 5661 5660 5659 5658 5656 5653 5651 5649 5648 5647 5646 5644 5642 5641 5640 5639 5637 5634 5632 5630 5629 5627 5625
5678 5678 5678 5677 5677 5676 5676 5675 5675 5674 5674 5673 5673 5673 5672 5672 5671 5671 5671 5671 5670 5670 5670 5669 5669 5669 5669 5669 5669 5669 5668 5668 5667 5667 5666 5666 5666 5666 5665 5665 5664 5663 5663 5662 5662 5661 5660 5659 5658 5657 5655 5653 5652 5650 5649 5646 5644 5642 5641 5640 5638 5637 5635 5634 5634 5632 5630 5628 5626 5624 5622 5620 5618 5616
5674 5674 5674 5674 5673 5673 5673 5672 5672 5672 5671 5670 5670 5669 5669 5668 5668 5667 5667 5667 5666 5666 5666 5665 5664 5664 5664 5664 5664 5663 5663 5662 5662 5661 5661 5660 5660 5660 5659 5659 5659 5657 5656 5656 5656 5655 5654 5653 5652 5650 5647 5645 5643 5641 5639 5637 5635 5633 5631 5630 5629 5627 5626 5626 5625 5623 5621 5619 5617 5615 5614 5612 5609 5607
5671 5670 5670 5669 5669 5669 5669 5669 5668 5668 5667 5667 5666 5665 5665 5664 5664 5663 5663 5662 5662 5662 5661 5661 5660 5659 5659 5659 5658 5658 5657 5656 5655 5655 5654 5654 5653 5653 5652 5652 5652 5651 5650 5649 5648 5648 5647 5646 5645 5643 5640 5637 5635 5633 5631 5629 5626 5623 5621 5621 5621 5620 5618 5616 5615 5613 5611 5610 5608 5606 5605 5603 5601 5599
5667 5666 5665 5665 5665 5665 5665 5664 5664 5663 5662 5662 5661 5661 5660 5660 5659 5659 5658 5658 5657 5656 5656 5655 5655 5654 5653 5653 5652 5651 5650 5649 5649 5648 5647 5646 5645 5645 5644 5644 5644 5643 5642 5640 5640 5639 5638 5637 5636 5635 5632 5629 5627 5624 5621 5619 5617 5615 5613 5612 5613 5611 5609 5607 5605 5603 5602 5600 5599 5597 5596 5594 5592 5591
5663 5663 5662 5661 5661 5660 5660 5659 5659 5659 5658 5657 5657 5656 5656 5655 5654 5654 5653 5653 5652 5651 5651 5650 5649 5648 5647 5646 5645 5644 5642 5641 5641 5640 5639 5638 5637 5636 5635 5634 5634 5634 5633 5632 5630 5630 5629 5628 5627 5626 5624 5621 5617 5614 5612 5611 5609 5607 5605 5604 5603 5602 5600 5597 5595 5593 5592 5591 5590 5588 5587 5585 5584 5583
5660 5659 5658 5658 5657 5656 5655 5654 5654 5653 5653 5653 5652 5652 5651 5650 5649 5649 5648 5647 5647 5646 5645 5644 5643 5642 5641 5640 5638 5637 5635 5633 5632 5631 5630 5629 5629 5628 5626 5625 5624 5624 5623 5622 5621 5620 5620 5619 5618 5617 5615 5612 5608 5605 5604 5603 5601 5599 5598 5597 5595 5593 5591 5589 5587 5585 5583 5582 5581 5580 5579 5577 5576 5575
5657 5656 5655 5654 5654 5653 5652 5651 5650 5649 5648 5648 5647 5647 5647 5646 5645 5644 5643 5642 5641 5640 5639 5638 5637 5636 5635 5633 5631 5629 5627 5625 5623 5622 5621 5619 5619 5618 5616 5615 5614 5613 5612 5611 5610 5610 5609 5608 5607 5606 5604 5602 5599 5596 5595 5594 5592 5591 5590 5589 5587 5585 5583 5581 5579 5577 5575 5574 5573 5573 5572 5571 5570 5569
5654 5653 5653 5652 5651 5650 5649 5648 5647 5646 5645 5644 5644 5643 5642 5641 5641 5640 5639 5638 5636 5635 5633 5632 5631 5630 5628 5626 5624 5622 5620 5617 5614 5613 5611 5609 5608 5607 5606 5604 5602 5601 5599 5599 5598 5598 5598 5596 5595 5594 5593 5591 5589 5586 5585 5584 5584 5582 5581 5580 5579 5578 5576 5574 5572 5571 5569 5567 5567 5566 5566 5565 5564 5564
5652 5652 5651 5650 5649 5648 5647 5646 5645 5644 5643 5642 5641 5640 5639 5638 5637 5635 5634 5633 5632 5631 5629 5627 5626 5625 5622 5621 5619 5616 5614 5611 5607 5604 5602 5600 5598 5596 5595 5593 5591 5589 5588 5587 5586 5586 5585 5584 5583 5582 5581 5579 5578 5576 5575 5574 5575 5574 5573 5573 5572 5570 5568 5567 5566 5564 5563 5562 5561 5560 5560 5560 5559 5558
5650 5650 5649 5648 5647 5646 5645 5644 5642 5641 5640 5639 5638 5637 5636 5634 5633 5632 5630 5629 5628 5626 5624 5622 5621 5619 5617 5615 5613 5610 5608 5605 5601 5598 5595 5592 5589 5587 5585 5583 5581 5579 5578 5577 5576 5575 5574 5572 5571 5571 5570 5569 5567 5566 5566 5566 5567 5567 5567 5566 5564 5562 5561 5561 5560 5559 5558 5557 5556 5555 5555 5554 5554 5553
5648 5647 5646 5645 5644 5644 5643 5641 5640 5639 5637 5636 5635 5634 5633 5631 5630 5628 5627 5625 5624 5622 5620 5618 5616 5614 5611 5609 5607 5604 5601 5598 5595 5592 5588 5585 5582 5580 5578 5576 5573 5571 5569 5568 5567 5565 5564 5562 5560 5560 5560 5559 5557 5557 5558 5559 5560 5560 5560 5559 5557 5556 5555 5555 5554 5554 5553 5552 5552 5551 5550 5550 5550 5549
5646 5645 5644 5643 5642 5641 5640 5639 5637 5636 5635 5634 5632 5631 5630 5629 5627 5625 5623 5622 5620 5618 5616 5614 5612 5610 5607 5605 5602 5599 5597 5593 5590 5586 5583 5579 5576 5574 5572 5570 5567 5565 5562 5561 5559 5557 5555 5553 5552 5552 5552 5551 5550 5549 5550 5552 5553 5553 5552 5551 5550 5550 5549 5549 5548 5548 5548 5548 5548 5547 5547 5547 5546 5546
5644 5643 5641 5640 5639 5638 5637 5636 5635 5633 5632 5631 5629 5628 5627 5626 5624 5622 5620 5619 5617 5615 5613 5611 5608 5606 5604 5601 5598 5596 5593 5589 5586 5582 5579 5575 5572 5569 5567 5564 5562 5559 5557 5555 5553 5551 5549 5547 5546 5546 5545 5544 5544 5544 5545 5546 5547 5547 5546 5545 5545 5545 5545 5544 5544 5544 5544 5544 5544 5544 5544 5544 5543 5543
5641 5640 5639 5637 5636 5635 5634 5633 5631 5630 5629 5627 5626 5625 5623 5622 5621 5619 5617 5615 5613 5611 5609 5607 5605 5602 5599 5597 5594 5591 5588 5585 5582 5579 5575 5572 5568 5565 5562 5560 5557 5554 5552 5550 5548 5546 5545 5543 5543 5542 5541 5540 5540 5541 5541 5542 5542 5542 5541 5541 5541 5541 5541 5541 5541 5541 5541 5541 5541 5541 5541 5540 5540 5539
5639 5637 5636 5634 5633 5632 5631 5629 5628 5627 5625 5624 5623 5621 5620 5618 5617 5615 5614 5611 5609 5608 5606 5604 5601 5599 5596 5593 5590 5587 5584 5581 5578 5575 5571 5568 5565 5562 5559 5556 5553 5550 5548 5546 5544 5543 5541 5540 5539 5539 5538 5537 5537 5537 5537 5538 5538 5538 5537 5538 5538 5538 5538 5538 5538 5538 5538 5538 5538 5537 5537 5537 5537 5536
5636 5635 5633 5632 5630 5629 5627 5626 5624 5623 5622 5620 5619 5618 5616 5615 5613 5611 5610 5608 5606 5603 5601 5599 5597 5595 5592 5589 5587 5584 5581 5578 5575 5572 5568 5565 5562 5559 5556 5552 5549 5546 5544 5542 5541 5539 5539 5538 5537 5536 5536 5535 5534 5534 5534 5534 5534 5534 5534 5535 5535 5535 5535 5535 5535 5535 5535 5535 5534 5534 5534 5534 5534 5534
5634 5632 5631 5629 5627 5625 5624 5622 5621 5619 5618 5616 5615 5613 5612 5611 5609 5607 5605 5604 5602 5599 5597 5595 5593 5590 5588 5585 5583 5580 5577 5574 5571 5568 5565 5562 5559 5556 5553 5550 5546 5543 5541 5539 5537 5537 5536 5535 5534 5534 5533 5532 5532 5532 5532 5532 5532 5531 5532 5532 5532 5532 5532 5532 5531 5531 5532 5532 5532 5532 5531 5531 5531 5531